Regional Weather Roundup
Issued by NWS Boston, MA

Current Version | Previous Version | Text Only | Print | Product List | Glossary Off
Versions: 1 2 3 4 5 6 7 8 9 10 11 12 13 14 15 16 17 18 19 20 21 22 23 24 25 26 27 28 29 30 31 32 33 34 35 36 37 38 39 40 41 42 43 44 45 46 47 48 49 50
000 ASUS41 KBOX 221110 RWRBOX REGIONAL WEATHER ROUNDUP NATIONAL WEATHER SERVICE TAUNTON MA 700 AM EDT SUN OCT 22 2017 NOTE: "FAIR" INDICATES FEW OR NO CLOUDS BELOW 12,000 FEET WITH NO SIGNIFICANT WEATHER AND/OR OBSTRUCTIONS TO VISIBILITY. MAZALL-221200- EASTERN MASSACHUSETTS CITY SKY/WX TMP DP RH WIND PRES REMARKS BOSTON CLOUDY 55 48 77 CALM 30.37R BEVERLY CLOUDY 49 45 86 CALM 30.36R LAWRENCE CLOUDY 53 47 79 CALM 30.39R BEDFORD PTCLDY 45 42 89 CALM 30.37R BLUE HILL N/A 62 39 42 N9 30.37R NORWOOD CLOUDY 45 43 93 CALM 30.37R MARSHFIELD CLOUDY 52 50 93 CALM 30.36R PLYMOUTH PTCLDY 49 46 90 CALM 30.37R TAUNTON CLOUDY 41 39 93 CALM 30.37R FOG NEW BEDFORD CLOUDY 44 43 96 CALM 30.36R $$ MAZALL-221200- CAPE COD AND THE ISLANDS CITY SKY/WX TMP DP RH WIND PRES REMARKS FALMOUTH FOG 50 50 100 CALM 30.38R VSB<1/4 HYANNIS PTCLDY 50 49 96 CALM 30.36R CHATHAM PTCLDY 55 55 100 SW3 30.38R PROVINCETOWN PTCLDY 51 50 96 SW3 30.37R NANTUCKET PTCLDY 57 57 100 SW7 30.38R MARTHAS VNYRD FOG 50 50 100 SW3 30.37R VSB 1/2 $$ MAZALL-221200- CENTRAL AND WESTERN MASSACHUSETTS CITY SKY/WX TMP DP RH WIND PRES REMARKS WORCESTER PTCLDY 54 41 61 W8 30.38R FITCHBURG PTCLDY 48 45 89 CALM 30.38R ORANGE CLOUDY 39 39 100 CALM 30.40R SPRINGFIELD MOCLDY 41 40 98 CALM 30.38R WESTFIELD CLOUDY 42 42 100 N5 30.39R NORTH ADAMS PTCLDY 36 34 92 CALM 30.41S PITTSFIELD CLOUDY 41 38 89 CALM 30.39R $$ RIZALL-221200- RHODE ISLAND CITY SKY/WX TMP DP RH WIND PRES REMARKS PROVIDENCE MOCLDY 49 48 97 CALM 30.38R NEWPORT MOCLDY 50 49 96 CALM 30.37R BLOCK ISLAND CLOUDY 58 57 97 SW7 30.38R SMITHFIELD CLOUDY 47 45 93 CALM 30.38R WESTERLY CLOUDY 46 44 93 CALM 30.39R $$ CTZALL-221200- CONNECTICUT CITY SKY/WX TMP DP RH WIND PRES REMARKS BRADLEY INTL MOCLDY 44 43 96 CALM 30.39R HARTFORD MOCLDY 47 45 93 CALM 30.39R BRIDGEPORT CLEAR 50 45 83 N3 30.38R DANBURY CLEAR 40 38 93 CALM 30.40S GROTON CLOUDY 48 46 93 N3 30.38R NEW HAVEN CLOUDY 44 42 93 CALM 30.38R CHESTER NOT AVBL MERIDEN PTCLDY 45 43 93 CALM 30.39R WILLIMANTIC CLOUDY 42 41 96 CALM 30.40R OXFORD PTCLDY 47 41 80 N3 30.39R $$ MEZ002-015-021-024-NHZ003-005-008-011-012-014-VTZ005-008-221200- NORTHERN NEW ENGLAND CITY SKY/WX TMP DP RH WIND PRES REMARKS PORTLAND ME MOCLDY 47 45 93 VRB5 30.39R BANGOR ME MOCLDY 46 35 65 N8 30.43R CONCORD NH MOCLDY 42 40 92 CALM 30.38R MANCHESTER NH MOCLDY 50 47 89 CALM 30.36R NASHUA NH PTCLDY 45 43 93 CALM 30.38R PORTSMOUTH NH MOCLDY 49 47 91 CALM 30.36R JAFFREY NH CLOUDY 41 41 100 S3 30.39S KEENE NH PTCLDY 37 37 100 S3 30.41R BURLINGTON VT PTCLDY 47 45 93 CALM 30.35S MT. WASHINGTON PTCLDY 46 25 42 W12 N/A $$ NYZ052-076-221200- EASTERN NEW YORK CITY SKY/WX TMP DP RH WIND PRES REMARKS ALBANY PTCLDY 42 40 92 CALM 30.40R FOG NEW YORK CITY PTCLDY 60 53 77 E3 30.38R $$ ANZALL-221200- MARINE OBSERVATIONS STATION/POSITION TIME TEMP WIND PRES VSBY WAVE AIR SEA DIR/SP/G HT/PER (UTC) (F) (DEG/KT/KT) (MB) (MI) (FT/S) BOSTON BUOY 1050 58 59 190/ 2/ 2 1027.7R 1 BUZZARDS BAY 1000 62 230/ 9/ 10 1028.5R NANTUCKET SOUND 1050 61 61 250/ 6/ 8 1028.3R 1 MASS BAY-STELLWA 1004 59 59 240/ 4/ 6 1027.0R 1/11 ISLE OF SHOALS 1000 56 30/ 4/ 5 1027.5R S OF BLOCK IS NOT AVBL $$ ......................KEY......................... SKY/WX - SKY CONDITION/PRESENT WEATHER TMP - TEMPERATURE IN FAHRENHEIT DWPT - DEWPOINT IN FAHRENHEIT RH - RELATIVE HUMIDITY IN PERCENT WIND - DIRECTION AND SPEED IN MPH PRES - MEAN SEA LEVEL PRESSURE IN INCHES OF HG WCI - WIND CHILL INDEX VSB - VISIBILITY IN MILES HX - HEAT INDEX TC - TEMPERATURE IN CELSIUS VRB - VARIABLE WIND DIRECTION N/A - NOT AVAILABLE

USA.gov is the U.S. government's official web portal to all federal, state and local government web resources and services.